User: anonymous   Login
Location: Unspecified
(0.0000°N, 0.0000°E)
Time: 21:54:12
(UTC+00:00)
Language:

AIST 2D - Orbit

View from above orbital plane
View from above orbital plane
View from above satellite
View from above satellite

Ground track
Ground track

The orbit data is extracted from the following two-line orbital elements,

1 41465U 16026B   22268.29817104  .00014708  00000-0  32848-3 0  9995
2 41465  97.0396 141.3495 0010818 121.7896  13.7698 15.43559673358924
Epoch (UTC): 25 September 2022 07:09:21
Eccentricity: 0.0010818
inclination: 97.0396°
perigee height: 428 km
apogee height: 443 km
right ascension of ascending node: 141.3495°
argument of perigee: 121.7896°
revolutions per day: 15.43559673
mean anomaly at epoch: 13.7698°
orbit number at epoch: 35892

The dashed part of the orbit path shows where the satellite is in the earth's shadow,  

DLR